Location: Gairloch Mountain Observatory
(46.1383°N, 60.9640°W)
Time: 19:31:20
(UTC-03:00)

Daily predictions for brighter satellites

Satellite Brightness Start Highest point End
(mag) Time Altitude Azimuth Time Altitude Azimuth Time Altitude Azimuth
Cosmos 1680 Rocket 3.8 19:13:21 10° SSW 19:18:41 78° WNW 19:24:02 10° NNE
SeaSat 1 4.2 19:21:42 10° E 19:22:41 11° E 19:23:40 10° ESE
Helios 1B rocket 3.5 19:19:20 10° NE 19:22:44 24° E 19:26:06 10° SSE
NOSS 3-2 (A) 4.1 19:18:57 10° S 19:24:18 33° ESE 19:30:04 10° NE
Cosmos 1408 Rocket 4.4 19:22:24 10° N 19:26:18 30° ENE 19:30:07 10° SE
USA 238 DEB 3.8 19:21:53 10° SSW 19:28:56 78° SE 19:35:59 10° NE
USA 238 3.8 19:21:59 10° SSW 19:29:02 78° SE 19:36:05 10° NE
Cosmos 2333 Rocket 2.4 19:24:49 10° SSW 19:30:35 81° WNW 19:36:24 10° NNE
Okean 3 Rocket 3.6 19:28:02 10° N 19:32:37 76° E 19:37:09 10° SSE
Resurs 01 Rocket 1.9 19:28:46 10° SE 19:33:02 48° ENE 19:37:20 10° N
Cosmos 292 Rocket 3.7 19:29:40 10° SSW 19:34:28 81° ESE 19:39:19 10° NNE
Resurs 1-3 4.0 19:33:09 10° SE 19:37:16 41° ENE 19:41:25 10° N
SAR-Lupe-4 4.0 19:34:35 10° S 19:38:07 66° WSW 19:41:42 10° NNW
Spot 1 4.2 19:37:45 10° SSE 19:42:30 73° ENE 19:47:01 10° N
Cosmos 1484 Rocket 4.4 19:40:53 10° SSW 19:44:28 39° W 19:48:08 10° NNW
Cosmos 1072 Rocket 4.5 19:39:22 10° S 19:45:20 58° E 19:51:19 10° NNE
CZ-4B DEB 3.8 19:42:41 10° SE 19:45:30 27° ENE 19:48:20 10° N
Cosmos 1867 4.4 19:40:18 10° SW 19:45:40 54° NW 19:51:04 10° NNE
ATLAS CENTAUR R/B 2.2 19:41:55 10° NW 19:46:04 50° WSW 19:49:53 10° SSE
TELKOM 3 3.9 19:44:29 10° WNW 19:47:26 43° N 19:48:58 17° ENE
In-Cosmos 22 4.4 19:43:18 10° N 19:48:59 54° ENE 19:54:37 10° SSE
NOSS 3-3 (A) 4.5 19:45:04 10° NW 19:52:28 79° NE 20:00:23 10° SE
NOSS 3-3 (C) 4.5 19:45:11 10° NW 19:52:34 79° NE 20:00:29 10° SE
BREEZE-M DEB (TANK) 4.3 19:33:50 10° W 19:52:53 88° S 19:57:15 15° E
Cosmos 1743 Rocket 4.5 19:49:05 10° NNE 19:52:58 28° ENE 19:56:18 13° SE
ALOS 2.6 19:49:29 10° SE 19:53:54 44° ENE 19:58:21 10° N
Cosmos 1674 4.1 19:53:18 10° NNE 19:56:14 20° ENE 19:57:24 18° E
Cosmos 2237 Rocket 2.9 19:53:37 10° SW 19:59:14 59° WNW 20:04:52 10° NNE
Cosmos 2056 Rocket 4.1 19:54:31 10° NNW 19:59:53 62° WSW 20:05:13 10° S
Spot 2 Rocket 3.5 19:55:09 10° SSE 20:00:12 90° W 20:05:16 10° NNW
Cosmos 1437 4.4 19:57:14 10° NNW 20:00:19 38° W 20:03:22 10° SSW
GP-B 4.5 19:57:50 10° NE 20:01:00 19° E 20:01:42 18° E
NOSS 3-2 (C) 3.7 19:55:15 10° S 20:01:02 47° ESE 20:07:20 10° NE
Cosmos 1766 3.3 20:00:06 10° S 20:04:04 87° WNW 20:08:05 10° N
CZ-4C R/B 2.7 19:59:05 10° SW 20:04:28 63° NW 20:10:37 10° NE
FREGAT/IRIS 4.2 20:04:31 10° S 20:07:27 39° W 20:10:24 10° NNW
ATLAS 5 CENTAUR R/B 2.3 20:06:48 10° S 20:11:14 39° ESE 20:16:02 10° NE
ASTEX 1 3.8 20:06:37 10° NNE 20:11:15 40° E 20:15:52 10° SSE
Envisat 4.3 20:09:49 19° E 20:11:18 21° ENE 20:15:05 10° NNE
Helios 1A 3.1 20:07:34 10° S 20:11:45 75° WSW 20:15:57 10° NNW
Meteor 2-12 Rocket 4.5 20:10:00 10° S 20:16:00 58° E 20:22:02 10° NNE
SL-16 R/B 2.2 20:11:59 10° SSW 20:17:42 89° WNW 20:23:26 10° NNE
Cosmos 2034 Rocket 3.9 20:13:22 10° S 20:19:35 73° E 20:25:55 10° NNE
CZ-2D R/B 3.2 20:16:45 15° SSE 20:19:50 62° ENE 20:23:43 10° N
Cosmos 1953 2.2 20:16:15 10° S 20:20:11 65° E 20:24:10 10° NNE
Cosmos 1464 Rocket 4.1 20:16:36 10° S 20:22:52 82° W 20:29:06 10° N
Aureole 2 Rocket 3.5 20:23:23 10° SSW 20:27:44 61° WNW 20:32:00 10° NNE
Cosmos 1766 Rocket 3.9 20:24:05 10° NNW 20:28:28 66° W 20:32:45 10° S
Cosmos 724 4.5 20:26:38 10° S 20:32:18 49° ESE 20:38:09 10° NE
USA 186 3.0 20:34:15 21° N 20:34:15 21° N 20:35:12 10° N
ATLAS CENTAUR R/B 4.0 20:29:13 10° SW 20:35:01 82° SE 20:54:53 10° NE
USA 215 3.2 20:28:38 10° NE 20:35:13 89° NW 20:41:46 10° SW
H-2A R/B 3.8 20:37:30 18° NE 20:37:30 18° NE 20:39:57 10° NNE
Cosmos 1805 3.3 20:33:44 10° SSW 20:37:40 80° W 20:41:37 10° N
H-2A R/B 2.8 20:36:55 18° S 20:39:43 80° WSW 20:43:38 10° NNW
Meteor 1-29 4.0 20:38:14 10° N 20:41:39 47° WNW 20:45:01 10° SSW
SPOT 5 4.3 20:47:25 19° NE 20:47:25 19° NE 20:49:35 10° NNE
FENGYUN 3A 4.1 20:45:51 10° S 20:51:08 60° W 20:56:30 10° NNW
Cosmos 1544 3.3 20:50:24 10° SSW 20:54:07 73° W 20:57:53 10° N
Cosmos 1346 3.9 20:51:56 10° NNW 20:54:50 47° W 20:54:56 47° WSW
ERS-1 Rocket 3.0 20:54:39 48° ESE 20:55:32 55° ENE 21:00:27 10° N
Cosmos 1452 Rocket 4.5 20:51:37 10° NNW 20:56:39 45° WSW 21:01:28 11° S
Cosmos-2242 3.7 20:52:55 10° SSW 20:57:12 56° WNW 21:01:33 10° N
Cosmos 1470 3.3 20:59:07 44° NNE 20:59:07 44° NNE 21:01:55 10° NNE
Helios 1B rocket 4.3 20:54:24 10° N 20:58:04 32° WNW 21:01:44 10° SW
Cosmos 2369 Rocket 2.3 20:55:05 10° NNW 21:00:41 59° ENE 21:01:47 49° ESE
SeaSat 1 2.3 20:55:59 10° NNE 21:00:57 75° ESE 21:05:52 10° SSW
Cosmos 1842 Rocket 3.3 21:02:21 57° S 21:03:13 82° E 21:07:35 10° N
Cosmos 1500 Rocket 3.6 20:58:50 10° NNW 21:03:16 79° W 21:04:33 46° S
Exosat Rocket 4.5 20:58:09 10° NNW 21:04:21 59° ENE 21:07:12 39° ESE
Cosmos 1603 3.6 20:59:00 10° SSW 21:04:44 85° ESE 21:10:32 10° NNE
Resurs 01 Rocket 4.3 21:06:36 10° SW 21:09:46 19° W 21:12:57 10° NW
Cosmos 1943 Rocket 3.0 21:07:13 10° NNW 21:12:21 35° NE 21:12:21 35° NE
NOSS 3-2 (A) 4.1 21:08:44 10° WSW 21:14:50 56° NW 21:21:32 10° NE
Cosmos 2151 3.3 21:11:25 10° N 21:14:47 54° N 21:14:47 54° N
Meteor 1-11 4.2 21:14:21 10° N 21:20:10 67° ENE 21:20:33 65° E
Cosmos 1939 Rocket 3.6 21:24:39 48° NNW 21:24:39 48° NNW 21:27:35 10° NNW
Cosmos 1331 Rocket 4.4 21:21:30 10° NNW 21:26:07 52° NE 21:26:07 52° NE
Cosmos 1655 Rocket 3.8 21:20:40 10° N 21:26:55 74° E 21:27:41 66° SE
Cosmos 1674 4.3 21:28:28 10° NNW 21:31:58 32° W 21:32:22 31° WSW
Cosmos 2058 4.3 21:30:28 10° N 21:32:41 31° N 21:32:41 31° N
Cosmos 2279 Rocket 4.1 21:35:38 58° ENE 21:35:38 58° ENE 21:40:59 10° NNE
Cosmos 1269 Rocket 4.5 21:30:33 10° SW 21:35:46 60° WNW 21:41:01 10° NNE
GP-B 4.1 21:34:19 10° N 21:38:34 45° W 21:39:11 42° WSW
H-2A R/B 3.9 21:43:47 18° NNE 21:43:47 18° NNE 21:45:36 10° N
Cosmos 1048 Rocket 4.4 21:37:25 10° SW 21:42:40 61° WNW 21:47:53 10° NNE
Envisat 3.4 21:50:02 57° W 21:50:02 57° W 21:54:57 10° NNW
Cosmos 1634 Rocket 4.5 21:49:16 19° SSW 21:53:46 58° WNW 21:59:55 10° N
Cosmos 2026 Rocket 4.2 21:47:46 10° NNW 21:53:48 65° W 21:54:38 58° SW
ATLAS 5 CENTAUR R/B 3.2 21:51:20 10° WSW 21:55:56 38° NW 22:00:10 14° NNE
Cosmos 1428 Rocket 4.5 21:52:53 10° N 21:58:47 80° NNW 21:58:47 80° NNW
Terra 4.2 22:04:40 15° NNE 22:04:40 15° NNE 22:05:39 10° N
H-2A R/B 4.0 22:14:39 27° NW 22:14:39 27° NW 22:16:52 10° NNW
USA 215 4.2 22:14:23 24° NE 22:17:52 43° NNW 22:23:56 10° W
ARGOS 4.3 22:20:14 39° NNW 22:20:14 39° NNW 22:23:35 10° NNW
Cosmos 2369 Rocket 4.1 22:39:54 10° NW 22:43:36 23° W 22:43:36 23° W
Cosmos 1943 Rocket 3.9 22:50:58 10° NW 22:53:53 28° WNW 22:53:53 28° WNW
CENTAUR R/B 4.2 23:47:41 30° N 23:47:41 30° N 23:52:34 10° NNE
